目前日期文章:201704 (64)

瀏覽方式: 標題列表 簡短摘要
發表時間 文章標題 人氣 留言
2017-04-30 豪昱 機械廚下型雙溫飲水設備(搭配3M HF20-MS抑垢型濾心) FP-688【優惠】 (2) (0)
2017-04-30 賽先生科學-Spacerail曲速引擎-瘋狂雲霄飛車----等級5【分享】 (0) (0)
2017-04-30 德國百靈BRAUN-刀頭刀網組(黑)10B-20B【分享】 (0) (0)
2017-04-29 ZANWA晶華 20公升電子行動冰箱-小冰箱-冷藏箱 CLT-20AS-B【燦坤】 (0) (0)
2017-04-28 BENRO 百諾 REEBOK 100N 銳步系列 雙肩攝影後背包 (勝興公司貨) 紅色 REEBOK 100N【燦坤】 (0) (0)
2017-04-28 艾美精品負離子古窗翠玉循環風扇燈-吊扇(附飛利浦LED燈泡x8)【選購】 (0) (0)
2017-04-28 ASUS A556UR Ci5 930MX 筆記型電腦 A556UR-0091B6200U【燦坤商城】 (0) (0)
2017-04-26 SONY MDR-AS410AP有線運動款耳機-白 MD-RAS410APWQE【快3網路商城】 (0) (0)
2017-04-26 廣寰 S31入耳式電競音樂耳麥 KW-S31【燦坤商城】 (0) (0)
2017-04-26 SAMSUNG Level Active 運動式無線耳機-黑 EO-BG930CBEGTW【燦坤商城】 (0) (0)
2017-04-20 CANON EOS 5D Mark III 單眼相機 (BODY) 5D MarkIII(中文平輸)【燦坤商城】 (0) (0)
2017-04-20 T.C.STAR電競鍵盤TCK803RD-紅 TCK803RD【燦坤】 (0) (0)
2017-04-20 BENRO 82mm SD UV ULCA WMC 保護鏡 高透光奈米鍍膜【快3】 (0) (0)
2017-04-19 ahha 吸盤式手機支架 A907909【快3網路商城】 (0) (0)
2017-04-19 B&O PLAY藍牙揚聲器 A2 Active(星光銀)【燦坤快3】 (1) (0)
2017-04-19 Capella LAON 歐風尊爵版豪華推車(A2)加提籃汽座-紫【推薦】 (2) (0)
2017-04-18 BOK 石頭造型景觀防水喇叭 (HR-506)【選購】 (0) (0)
2017-04-18 didimi滴滴美蒸餾水機~紳士藍(不鏽鋼)~110伏特【嚴選】 (0) (0)
2017-04-18 T.C.STAR鋅合金金剛傳輸線1m-銀灰 TCW-U8100GR【折價卷】 (0) (0)
2017-04-13 Uptech Cat.5 HDMI影音延伸器-C503【分享】 (0) (0)
2017-04-13 湯尼熊 Tony Bear 勁風貝殼式汽車座椅 0-4歲(紅色)【推薦】 (6) (0)
2017-04-13 富士通FUJITSU ScanSnap iX100 行動無線掃描器【嚴選】 (1) (0)
2017-04-13 國家地理 National Geographic (NG AU 2450) 澳大利亞系列【選購】 (0) (0)
2017-04-13 LEGO樂高 城市系列60085 4x4汽艇【分享】 (0) (0)
2017-04-08 TAMRON 18-200mm F3.5-6.3 DiII VC B018 FOR NIKON(平輸)【大放送】 (0) (0)
2017-04-08 環遊全世界DIY大型地圖益智壁貼 1入起 - 153198_一起吃喝玩樂 GOMAJI (0) (0)
2017-04-08 USB2.0 56K FAX MODEM電腦外接式傳真機-單接口【推薦】 (0) (0)
2017-04-08 ThinkTank創意坦克-航空旅行輕量行李箱-AA553【選購】 (1) (0)
2017-04-08 SWIFT窗型定頻單冷空調 SWF-63C2L【折價卷】 (1) (0)
2017-04-07 KINYO黑鑽石多媒體喇叭PS291【優惠】 (0) (0)
2017-04-07 Pro-Ject黑膠音響組合 RPM1+MaiA+Speaker-白【發燒好康】 (3) (0)
2017-04-07 Pioneer SE-CL501耳道式耳機-綠 SE-CL501-G【購物金】 (0) (0)
2017-04-07 KOLIN 歌林 3-4坪「定頻冷專一對一」KOU-20203 -KSA-202S03【嚴選】 (0) (0)
2017-04-07 KINYO 音浪潮流-可遙控木質藍牙手提喇叭【選購】 (0) (0)
2017-04-06 Brother PT-D200RK Rilakkuma拉拉熊創意自黏標籤機【推薦】 (1) (0)
2017-04-06 CHICCO 義大利體能運動三合一滑板玩具1組【分享】 (0) (0)
2017-04-06 CASIO卡西歐 61鍵高階電子琴(CTK-6000)【嚴選】 (0) (0)
2017-04-06 Canon EF 35mm F2 IS USM 大光圈廣角鏡頭 (公司貨)【分享】 (0) (0)
2017-04-06 brinno TLC200縮時攝影相機【優惠】 (0) (0)
2017-04-05 ZODENCE 義大利植鞣革系列三層手拿斜背包(小) 駝【嚴選】 (0) (0)
2017-04-05 GoPro ANVGM-001專用快拆夜視鏡座 ANVGM-001【折價卷】 (0) (0)
2017-04-05 Fujimaru 雙渦輪循環扇 FJ-F8105【折價卷】 (4) (0)
2017-04-05 超薄型6000mAh汽車緊急啟動行動電源組 1組起 - 154137【選購】 (0) (0)
2017-04-05 colorjet A4日本多功能影印厚卡紙140gsm AIO140-4【折價卷】 (0) (0)
2017-04-04 ZODENCE Ball系列荔枝牛皮單拉鍊長夾 - 咖【嚴選】 (0) (0)
2017-04-04 煥顏SPA美容中心 - 142306_一起吃喝玩樂 GOMAJI (0) (0)
2017-04-04 極薄0.22mm鋼化玻璃保護貼 1入起 - 152317_一起吃喝玩樂 GOMAJI (0) (0)
2017-04-04 ZODENCE MAN 簡約系列兩折經典窗短夾 - 黑【選購】 (0) (0)
2017-04-04 YUCCA - 牛皮十字紋編織長夾-綠色- D0107006【分享】 (0) (0)
2017-04-03 時尚屋 艾力森胡桃色1.5尺餐櫃【推薦】 (0) (0)
1 2